Location: Carroll
(32.4774°N, 95.5202°W)
Time: 16:24:08
(UTC+01:00)

Daily predictions for brighter satellites

Satellite Brightness Start Highest point End
(mag) Time Altitude Azimuth Time Altitude Azimuth Time Altitude Azimuth
ASTRO E2 3.6 12:06:10 45° SE 12:06:10 45° SE 12:09:29 10° E
Skynet4D Del rocket 4.4 12:04:36 35° SSW 12:05:42 39° S 12:10:40 10° ESE
OAO 3 Copernicus 4.3 12:08:15 70° N 12:08:16 70° N 12:13:21 10° E
Cosmos 2154 Rocket 4.4 12:02:31 10° S 12:08:38 62° E 12:14:43 10° NNE
Okean 1 Rocket 3.1 12:12:46 10° S 12:17:09 78° E 12:21:32 10° N
GPS 2-05 Rocket1 3.6 12:20:24 50° SE 12:20:24 50° SE 12:23:12 10° ESE
COSMO-SKYMED 1 3.5 12:20:58 10° SSE 12:25:05 46° ENE 12:29:15 10° N
Meteor 1-11 Rocket 3.7 12:20:58 10° S 12:26:50 89° E 12:32:36 10° N
Cosmos 1610 Rocket 4.4 12:21:36 10° SSW 12:27:41 64° W 12:33:53 10° N
Transit 2A Rocket 4.5 12:31:18 39° NNW 12:32:55 83° ENE 12:37:11 10° SSE
Cosmos 1346 Rocket 3.5 12:35:48 35° SW 12:35:48 35° SW 12:38:33 10° SSW
Cosmos 1300 Rocket 4.3 12:35:12 10° SSW 12:44:46 - N 12:38:16 34° WSW
NOAA 6 4.0 12:34:39 10° N 12:39:42 60° WNW 12:44:44 10° SSW
Meteor 1-13 Rocket 4.2 12:35:50 10° N 12:41:49 78° W 12:47:41 10° S
USA 229 DEB 3.6 12:36:07 10° SSW 12:43:00 82° WNW 12:49:58 10° NNE
USA 229 3.6 12:36:14 10° SSW 12:43:06 83° WNW 12:50:03 10° NNE
Cosmos 2369 Rocket 2.4 12:42:09 10° NNW 12:47:52 72° ENE 12:53:30 10° SSE
Okean 1-7 Rocket 3.4 12:44:20 10° N 12:48:43 84° W 12:53:06 10° S
Meteor 2-4 Rocket 4.0 12:43:59 10° N 12:49:33 69° E 12:55:16 10° SSE
Cosmos 1269 Rocket 4.4 12:46:55 10° S 12:52:08 67° ESE 12:57:23 10° NNE
Meteor 1-5 Rocket 4.4 12:48:14 10° S 12:53:35 69° E 12:58:51 10° NNE
SKYMED 3 4.5 12:50:46 10° S 12:55:05 73° W 12:59:25 10° NNW
PSLV R/B 3.2 12:54:08 40° WNW 12:55:13 74° SSW 12:58:35 10° SE
Cosmos 1633 4.3 12:54:16 10° SW 12:55:27 17° SW 12:55:27 17° SW
Cosmos 2084 3.0 12:54:05 10° SW 12:58:00 68° WNW 13:01:49 10° NNE
SL-24 DEB 4.4 12:54:05 10° S 12:58:51 82° E 13:03:39 10° N
CZ-3 R/B 2.3 12:45:22 10° WSW 12:58:52 51° S 13:02:56 10° E
Cosmos 468 4.4 12:55:58 10° SSW 13:01:11 71° WNW 13:06:28 10° NNE
Nadezhda 3 Rocket 4.1 12:59:54 10° NNW 13:06:07 57° W 13:12:19 10° SSW
Cosmos 1455 Rocket 4.0 13:03:27 10° SSE 13:07:37 51° E 13:11:49 10° NNE
Cosmos 2056 Rocket 4.2 13:05:44 19° NW 13:08:26 30° W 13:12:50 10° SSW
Cosmos 1943 3.8 13:04:03 10° SW 13:09:00 32° WNW 13:14:00 10° N
CZ-2C R/B 4.0 13:04:22 10° NNE 13:09:08 39° E 13:13:45 10° SSE
Okean 2 4.0 13:05:22 10° N 13:09:30 60° E 13:13:34 10° SSE
Cosmos 1536 3.4 13:07:00 10° SW 13:10:36 33° W 13:14:15 10° NNW
SKYMED 2 3.9 13:09:01 10° S 13:13:07 43° W 13:17:15 10° NNW
Lacrosse 5 3.6 13:12:56 13° NW 13:13:31 13° NW 13:16:01 10° N
USA 215 3.7 13:10:20 10° NNE 13:16:16 38° NW 13:22:11 10° WSW
Cosmos 1048 Rocket 3.9 13:12:05 10° SSW 13:17:11 77° WNW 13:22:22 10° NNE
Ariane Rocket 3.2 13:13:21 10° N 13:18:10 47° WNW 13:23:00 10° SW
ATLAS CENTAUR Rocket 2.9 13:11:34 12° W 13:19:10 48° SSW 13:22:53 10° ESE
Tiangong 2 2.7 13:18:24 13° NNW 13:20:34 25° NNE 13:23:15 10° E
Cosmos 1943 Rocket 2.6 13:16:37 10° NNW 13:22:04 62° ENE 13:27:31 10° SSE
CZ-4 R/B 1.6 13:18:41 10° NNE 13:22:35 69° E 13:26:26 10° S
SPOT 3 Rocket 4.4 13:22:58 10° NNE 13:28:01 55° E 13:33:03 10° S
USA 129 1.5 13:29:58 10° S 13:32:01 77° WSW 13:34:11 10° NNW
Cosmos 1025 Rocket 3.7 13:31:51 10° NNW 13:35:49 34° W 13:39:43 10° SSW
IRS-1A Rocket 4.4 13:35:06 10° N 13:40:46 61° WNW 13:46:30 10° SSW
SJ-12 3.9 13:37:25 10° N 13:41:35 76° WNW 13:45:42 10° SSW
Cosmos 1500 3.6 13:38:34 10° S 13:42:17 68° E 13:46:02 10° NNE
Cosmos 864 Rocket 4.5 13:37:11 10° SSW 13:43:17 71° W 13:49:27 10° N
SL-27 R/B 2.4 13:42:13 10° SSW 13:45:44 81° WNW 13:49:20 10° NNE
ASTRO E2 2.8 13:42:02 10° W 13:46:04 78° S 13:50:06 10° E
YAOGAN 1 2.6 13:42:22 10° NNE 13:46:43 90° W 13:51:02 10° SSW
Meteor 1-28 Rocket 4.3 13:44:56 10° SSW 13:48:08 26° W 13:51:21 10° NW
Centaur AC-42 4.1 13:46:38 10° SW 13:49:49 22° SSE 13:55:19 10° ESE
